User: anonymous   Login
Location: Lake Runnemede Observatory
(43.4843°N, 72.3851°W)
Time: 02:19:35
(UTC-05:00)
Language:

SPOT 5 - Orbit

View from above orbital plane
View from above orbital plane
View from above satellite
View from above satellite

Ground track
Ground track

The orbit data is extracted from the following two-line orbital elements,

1 27421U 02021A   14352.74350119  .00000143  00000-0  86831-4 0  2289
2 27421 098.5413 049.7910 0000958 085.0021 022.5934 14.20125300654510
Epoch (UTC): 18 December 2014 17:50:38
Eccentricity: 0.0000958
inclination: 98.5413°
perigee height: 824 km
apogee height: 825 km
right ascension of ascending node: 49.7910°
argument of perigee: 85.0021°
revolutions per day: 14.20125300
mean anomaly at epoch: 22.5934°
orbit number at epoch: 65451

The dashed part of the orbit path shows where the satellite is in the earth's shadow,  

DLR